TimeEST,TemperatureF,Dew PointF,Humidity,Sea Level PressureIn,VisibilityMPH,Wind Direction,Wind SpeedMPH,Gust SpeedMPH,PrecipitationIn,Events,Conditions,WindDirDegrees,DateUTC
12:53 AM,28.9,21.9,75,29.97,10.0,NW,13.8,-,N/A,,Overcast,310,2012-12-27 05:53:00
1:53 AM,28.9,21.9,75,30.00,10.0,WNW,9.2,-,N/A,,Overcast,300,2012-12-27 06:53:00
2:53 AM,28.9,21.0,72,30.02,10.0,WNW,8.1,-,N/A,,Overcast,300,2012-12-27 07:53:00
3:53 AM,28.9,21.9,75,30.05,10.0,WNW,9.2,-,N/A,,Overcast,300,2012-12-27 08:53:00
4:53 AM,28.9,21.9,75,30.07,10.0,WNW,6.9,-,N/A,,Overcast,300,2012-12-27 09:53:00
5:53 AM,28.9,21.9,75,30.09,10.0,WNW,10.4,-,N/A,,Overcast,300,2012-12-27 10:53:00
6:53 AM,28.0,21.9,78,30.11,10.0,West,5.8,-,N/A,,Overcast,270,2012-12-27 11:53:00
7:53 AM,28.0,21.0,75,30.13,10.0,WNW,5.8,-,N/A,,Overcast,300,2012-12-27 12:53:00
8:53 AM,28.0,21.9,78,30.14,10.0,West,4.6,-,N/A,,Overcast,270,2012-12-27 13:53:00
9:53 AM,28.0,21.9,78,30.17,10.0,WNW,10.4,-,N/A,,Overcast,300,2012-12-27 14:53:00
10:53 AM,28.0,21.9,78,30.18,10.0,NW,9.2,-,N/A,,Overcast,310,2012-12-27 15:53:00
11:53 AM,28.0,21.0,75,30.19,10.0,NW,8.1,-,N/A,,Overcast,310,2012-12-27 16:53:00
12:53 PM,28.9,21.9,75,30.17,10.0,NW,4.6,-,N/A,,Overcast,320,2012-12-27 17:53:00
1:53 PM,30.0,21.9,72,30.16,10.0,West,4.6,-,N/A,,Overcast,270,2012-12-27 18:53:00
2:53 PM,30.9,23.0,72,30.17,10.0,Calm,Calm,-,N/A,,Overcast,0,2012-12-27 19:53:00
3:53 PM,30.9,23.0,72,30.17,10.0,Calm,Calm,-,N/A,,Overcast,0,2012-12-27 20:53:00
4:53 PM,30.9,23.0,72,30.18,10.0,Calm,Calm,-,N/A,,Overcast,0,2012-12-27 21:53:00
5:53 PM,30.0,23.0,75,30.20,10.0,Calm,Calm,-,N/A,,Overcast,0,2012-12-27 22:53:00
7:53 PM,21.9,19.0,89,30.21,10.0,NE,3.5,-,N/A,,Clear,40,2012-12-28 00:53:00
8:53 PM,19.9,18.0,92,30.21,6.0,Calm,Calm,-,N/A,,Clear,0,2012-12-28 01:53:00
9:53 PM,21.0,18.0,88,30.20,7.0,Calm,Calm,-,N/A,,Clear,0,2012-12-28 02:53:00
10:53 PM,19.9,17.1,89,30.20,6.0,Calm,Calm,-,N/A,,Clear,0,2012-12-28 03:53:00
11:53 PM,19.9,16.0,85,30.19,5.0,Calm,Calm,-,N/A,,Clear,0,2012-12-28 04:53:00